C/2015 X5 ( PanSTARRS )

Japanese version
Home page
Updated on November 9, 2019

---------------------------------------------------------------------

* Profile

Discovery Date December 6, 2015
Magnitude 21.3 mag
Discoverer Pan-STARRS 1 telescope (Haleakala)

* Pictures

* Orbital Elements

Epoch 2018 Jan. 2.0 TT = JDT 2458120.5
T 2017 Dec. 31.02912 TT                                 Williams
q   6.8017351            (2000.0)            P               Q
z  -0.0004890      Peri.   27.75231     -0.25136002     +0.67029009
 +/-0.0000006      Node   122.31452     +0.66183232     -0.40736008
e   1.0033262      Incl.  124.29091     +0.70625500     +0.62029748
From 211 observations 2015 Dec. 6-2019 Oct. 20, mean residual 0".4.

* Magnitudes Graph

        m1 = 2.0 + 5 log d + 15.0 log r(t - 150)

---------------------------------------------------------------------

The orbital elements are published on M.P.E.C. 2019-V116.
The magnitudes graphs are made with Comet for Windows.

---------------------------------------------------------------------

Copyright(C) Seiichi Yoshida (comet@aerith.net). All rights reserved.